ONEWEB-0715 (55176 NORAD) Tracking and Keplerian Element Data

This shows tracking and keplerian element data for the satellite.

Feedback or suggestion? Click here.




ElementValue
Catalog55176
NameONEWEB-0715
Epoch Orbit130
Epoch Day13.91667824
Epoch Year2023
RAAN284.1454
Inclination86.5137
Eccentricity0.0008335
Argument of Perigee201.4322
Mean Anonmoly58.6668
Mean Motion14.90537685
Decay Rate-0.00049451
L11 55176U 23004AN 23013.91667824 -.00049451 00000+0 -51045-2 0 9996
L22 55176 86.5137 284.1454 0008335 201.4322 58.6668 14.90537685 1308



Live tracking and technical data element details for ONEWEB-0715 (NORAD 55176). ONEWEB-0715 can be tracked NOW for your location showing map with azimuth and elevation plus other details from your city location.







IsCatalogInMostPopularTable: catalog: 55176, numindb: 4
Update: records affected: 1



GetName: 55176 ONEWEB-0715

Hit Count: updated at: Tue, 07 Feb 2023 16:05:35 GMT